Location: Parc des �les de St-Timoth�e
(45.2924°N, 74.0481°W)
Time: 14:07:51
(UTC-04:00)

ISS - All Passes

Search period start: 29 June 2016 00:00
Search period end: 09 July 2016 00:00
Orbit: 402 x 403 km, 51.6° (Epoch: 29 June)

Date Brightness Start Highest point End Pass type
(mag) Time Alt. Az. Time Alt. Az. Time Alt. Az.
29 Jun - 09:19:14 10° SW 09:22:28 66° SSE 09:25:44 10° ENE daylight
29 Jun - 10:56:06 10° W 10:59:06 32° NNW 11:02:07 10° NE daylight
29 Jun - 12:33:18 10° NW 12:36:09 27° N 12:39:01 10° ENE daylight
29 Jun - 14:09:44 10° WNW 14:13:00 64° NNE 14:16:15 10° ESE daylight
29 Jun - 15:46:40 10° W 15:49:11 21° SW 15:51:42 10° S daylight
30 Jun - 08:26:45 10° SSW 08:29:46 36° SE 08:32:49 10° ENE daylight
30 Jun - 10:03:03 10° W 10:06:12 43° NNW 10:09:21 10° NE daylight
30 Jun - 11:40:22 10° WNW 11:43:10 25° N 11:45:59 10° ENE daylight
30 Jun - 13:17:00 10° NW 13:20:09 43° NNE 13:23:18 10° E daylight
30 Jun - 14:53:32 10° WNW 14:56:34 36° SW 14:59:36 10° SSE daylight
01 Jul - 07:34:38 10° S 07:37:09 21° SE 07:39:41 10° E daylight
01 Jul - 09:10:05 10° WSW 09:13:20 64° NNW 09:16:36 10° ENE daylight
01 Jul - 10:47:20 10° WNW 10:50:11 27° N 10:53:03 10° NE daylight
01 Jul - 12:24:13 10° NW 12:27:14 32° NNE 12:30:14 10° E daylight
01 Jul - 14:00:36 10° WNW 14:03:52 65° SSW 14:07:06 10° SE daylight
02 Jul - 06:43:23 10° SSE 06:44:35 12° SE 06:45:48 10° ESE daylight
02 Jul - 08:17:16 10° SW 08:20:31 78° SSE 08:23:47 10° ENE daylight
02 Jul - 09:54:15 10° WNW 09:57:12 31° NNW 10:00:10 10° NE daylight
02 Jul - 11:31:23 10° NW 11:34:15 27° N 11:37:08 10° ENE daylight
02 Jul - 13:07:47 10° WNW 13:11:04 74° NNE 13:14:20 10° ESE daylight
02 Jul - 14:44:55 10° W 14:47:10 17° SW 14:49:26 10° S daylight
03 Jul - 07:24:39 10° SW 07:27:46 43° SE 07:30:54 10° ENE daylight
03 Jul - 09:01:09 10° W 09:04:15 39° NNW 09:07:22 10° NE daylight
03 Jul - 10:38:26 10° WNW 10:41:15 26° N 10:44:04 10° ENE daylight
03 Jul - 12:15:01 10° NW 12:18:11 48° NNE 12:21:23 10° E daylight
03 Jul - 13:51:37 10° WNW 13:54:32 30° SW 13:57:27 10° SSE daylight
04 Jul - 06:32:22 10° SSW 06:35:05 24° SE 06:37:48 10° E daylight
04 Jul - 08:08:06 10° WSW 08:11:20 56° NNW 08:14:34 10° NE daylight
04 Jul - 09:45:24 10° WNW 09:48:14 26° N 09:51:03 10° NE daylight
04 Jul - 11:22:11 10° NW 11:25:15 35° NNE 11:28:17 10° E daylight
04 Jul - 12:58:36 10° WNW 13:01:48 55° SW 13:05:01 10° SE daylight
05 Jul - 05:40:42 10° SSE 05:42:27 14° SE 05:44:13 10° E daylight
05 Jul - 07:15:12 10° WSW 07:18:28 90° ENE 07:21:45 10° ENE daylight
05 Jul - 08:52:16 10° WNW 08:55:12 29° N 08:58:07 10° NE daylight
05 Jul - 10:29:20 10° NW 10:32:14 29° N 10:35:09 10° ENE daylight
05 Jul - 12:05:43 10° WNW 12:09:01 85° NE 12:12:16 10° ESE daylight
05 Jul - 13:43:07 10° W 13:45:02 15° SW 13:46:58 10° S daylight
06 Jul - 06:22:28 10° SW 06:25:39 51° SE 06:28:50 10° ENE daylight
06 Jul - 07:59:08 10° W 08:02:11 36° NNW 08:05:15 10° NE daylight
06 Jul - 09:36:23 10° NW 09:39:12 26° N 09:42:02 10° ENE daylight
06 Jul - 11:12:54 10° NW 11:16:06 53° NNE 11:19:19 10° ESE daylight
06 Jul - 12:49:36 10° W 12:52:23 26° SW 12:55:10 10° SSE daylight
07 Jul - 05:30:01 10° SSW 05:32:54 28° SE 05:35:46 10° ENE daylight
07 Jul - 07:06:01 10° W 07:09:13 50° NNW 07:12:25 10° NE daylight
07 Jul - 08:43:19 10° WNW 08:46:08 26° N 08:48:57 10° ENE daylight
07 Jul - 10:20:03 10° NW 10:23:08 38° NNE 10:26:14 10° E daylight
07 Jul - 11:56:29 10° WNW 11:59:39 46° SW 12:02:47 10° SE daylight
08 Jul - 04:38:05 10° S 04:40:12 16° SE 04:42:20 10° E visible
08 Jul - 06:13:02 10° WSW 06:16:17 79° NNW 06:19:33 10° ENE daylight
08 Jul - 07:50:11 10° WNW 07:53:04 28° N 07:55:57 10° NE daylight
08 Jul - 09:27:10 10° NW 09:30:07 30° NNE 09:33:03 10° ENE daylight
08 Jul - 11:03:32 10° WNW 11:06:49 83° SSW 11:10:05 10° ESE daylight
08 Jul - 12:41:18 10° WSW 12:42:47 12° SW 12:44:15 10° SSW daylight
